TimeCST,TemperatureF,Dew PointF,Humidity,Sea Level PressureIn,VisibilityMPH,Wind Direction,Wind SpeedMPH,Gust SpeedMPH,PrecipitationIn,Events,Conditions,WindDirDegrees,DateUTC
12:15 AM,35.4,16.2,46,29.85,10.0,West,27.6,38.0,N/A,,Clear,270,2013-01-20 06:15:00
12:35 AM,33.6,17.4,52,29.87,10.0,West,31.1,40.3,N/A,,Clear,270,2013-01-20 06:35:00
12:55 AM,32.4,16.7,53,29.90,10.0,West,26.5,35.7,N/A,,Clear,280,2013-01-20 06:55:00
1:15 AM,30.9,14.4,50,29.93,10.0,West,25.3,35.7,N/A,,Clear,280,2013-01-20 07:15:00
1:35 AM,29.7,12.0,48,29.95,10.0,WNW,21.9,34.5,N/A,,Clear,300,2013-01-20 07:35:00
1:55 AM,28.2,8.1,43,29.98,10.0,WNW,24.2,29.9,N/A,,Clear,300,2013-01-20 07:55:00
2:15 AM,27.0,8.2,45,30.00,10.0,West,19.6,31.1,N/A,,Clear,280,2013-01-20 08:15:00
2:35 AM,25.7,8.8,49,30.01,10.0,WNW,17.3,21.9,N/A,,Clear,290,2013-01-20 08:35:00
2:55 AM,24.8,8.8,51,30.02,10.0,NW,21.9,28.8,N/A,,Clear,310,2013-01-20 08:55:00
3:15 AM,24.3,8.6,51,30.03,10.0,WNW,17.3,24.2,N/A,,Clear,300,2013-01-20 09:15:00
3:35 AM,23.4,8.1,52,30.05,10.0,WNW,21.9,29.9,N/A,,Clear,300,2013-01-20 09:35:00
3:55 AM,22.5,6.3,50,30.07,10.0,WNW,24.2,31.1,N/A,,Clear,290,2013-01-20 09:55:00
4:15 AM,21.6,5.9,51,30.08,10.0,WNW,20.7,27.6,N/A,,Clear,300,2013-01-20 10:15:00
4:35 AM,21.0,6.1,53,30.09,10.0,WNW,23.0,27.6,N/A,,Clear,300,2013-01-20 10:35:00
4:55 AM,20.3,6.1,54,30.10,10.0,WNW,15.0,25.3,N/A,,Clear,300,2013-01-20 10:55:00
5:15 AM,20.1,6.8,56,30.11,10.0,WNW,15.0,25.3,N/A,,Clear,300,2013-01-20 11:15:00
5:35 AM,19.6,7.2,59,30.13,10.0,WNW,17.3,24.2,N/A,,Clear,300,2013-01-20 11:35:00
5:55 AM,19.4,7.3,60,30.14,10.0,WNW,18.4,23.0,N/A,,Clear,300,2013-01-20 11:55:00
6:15 AM,18.9,6.8,59,30.15,10.0,NW,18.4,31.1,N/A,,Clear,310,2013-01-20 12:15:00
6:35 AM,18.3,6.4,60,30.17,10.0,NW,17.3,21.9,N/A,,Clear,310,2013-01-20 12:35:00
6:55 AM,17.8,6.6,62,30.18,10.0,NW,13.8,24.2,N/A,,Clear,310,2013-01-20 12:55:00
7:15 AM,17.6,6.8,63,30.19,10.0,WNW,11.5,19.6,N/A,,Scattered Clouds,290,2013-01-20 13:15:00
7:35 AM,17.6,6.8,63,30.20,10.0,WNW,15.0,20.7,N/A,,Mostly Cloudy,300,2013-01-20 13:35:00
8:15 AM,18.0,6.4,61,30.23,10.0,West,10.4,18.4,N/A,,Overcast,280,2013-01-20 14:15:00
8:35 AM,17.4,5.0,58,30.24,10.0,WNW,13.8,-,N/A,,Overcast,290,2013-01-20 14:35:00
8:55 AM,17.4,5.0,58,30.25,10.0,WNW,13.8,20.7,N/A,,Overcast,290,2013-01-20 14:55:00
9:15 AM,17.8,5.4,58,30.26,10.0,WNW,13.8,-,N/A,,Scattered Clouds,290,2013-01-20 15:15:00
9:35 AM,18.3,6.1,59,30.26,10.0,WNW,10.4,-,N/A,,Clear,300,2013-01-20 15:35:00
9:55 AM,19.0,5.9,57,30.26,10.0,NNW,13.8,-,N/A,,Clear,340,2013-01-20 15:55:00
10:15 AM,19.9,6.1,55,30.26,10.0,WNW,11.5,17.3,N/A,,Clear,300,2013-01-20 16:15:00
10:35 AM,20.3,6.6,56,30.25,10.0,NW,9.2,-,N/A,,Clear,320,2013-01-20 16:35:00
10:55 AM,20.5,6.8,56,30.25,10.0,NNW,10.4,16.1,N/A,,Clear,330,2013-01-20 16:55:00
11:15 AM,20.8,6.8,55,30.25,10.0,NW,9.2,-,N/A,,Clear,320,2013-01-20 17:15:00
11:35 AM,21.4,7.2,54,30.23,10.0,NW,8.1,16.1,N/A,,Clear,310,2013-01-20 17:35:00
11:55 AM,21.6,6.8,53,30.22,10.0,WNW,5.8,-,N/A,,Clear,290,2013-01-20 17:55:00
12:15 PM,21.7,5.9,51,30.23,10.0,WNW,12.7,-,N/A,,Clear,300,2013-01-20 18:15:00
12:35 PM,22.1,6.4,51,30.23,10.0,WNW,9.2,-,N/A,,Scattered Clouds,300,2013-01-20 18:35:00
12:55 PM,22.6,6.8,51,30.22,10.0,WNW,13.8,18.4,N/A,,Mostly Cloudy,300,2013-01-20 18:55:00
1:15 PM,22.1,5.4,49,30.22,10.0,NW,11.5,-,N/A,,Scattered Clouds,310,2013-01-20 19:15:00
1:35 PM,21.7,5.0,49,30.22,10.0,NW,10.4,-,N/A,,Scattered Clouds,320,2013-01-20 19:35:00
1:55 PM,21.7,4.5,47,30.22,10.0,WNW,9.2,-,N/A,,Mostly Cloudy,300,2013-01-20 19:55:00
2:15 PM,21.9,5.0,48,30.23,10.0,NNW,8.1,-,N/A,,Scattered Clouds,330,2013-01-20 20:15:00
2:35 PM,22.1,4.8,48,30.22,10.0,WNW,3.5,-,N/A,,Clear,300,2013-01-20 20:35:00
3:15 PM,21.7,4.8,48,30.22,10.0,NW,8.1,-,N/A,,Scattered Clouds,320,2013-01-20 21:15:00
3:35 PM,21.7,5.0,49,30.23,10.0,WNW,6.9,-,N/A,,Scattered Clouds,300,2013-01-20 21:35:00
3:55 PM,21.9,5.4,49,30.22,10.0,WNW,5.8,-,N/A,,Scattered Clouds,290,2013-01-20 21:55:00
4:15 PM,21.9,5.4,49,30.22,10.0,NW,6.9,-,N/A,,Mostly Cloudy,310,2013-01-20 22:15:00
4:35 PM,21.4,5.9,51,30.23,10.0,NW,6.9,-,N/A,,Mostly Cloudy,320,2013-01-20 22:35:00
4:55 PM,20.7,6.3,54,30.23,10.0,NW,3.5,-,N/A,,Clear,320,2013-01-20 22:55:00
5:15 PM,20.1,7.0,57,30.23,10.0,NW,5.8,-,N/A,,Mostly Cloudy,320,2013-01-20 23:15:00
5:35 PM,20.8,6.6,54,30.23,10.0,NW,4.6,-,N/A,,Overcast,320,2013-01-20 23:35:00
5:55 PM,20.7,6.6,55,30.23,10.0,NW,4.6,-,N/A,,Overcast,310,2013-01-20 23:55:00
6:15 PM,20.3,7.3,57,30.22,10.0,NNW,3.5,-,N/A,,Overcast,330,2013-01-21 00:15:00
6:35 PM,20.1,7.7,59,30.22,10.0,WNW,3.5,-,N/A,,Overcast,300,2013-01-21 00:35:00
6:55 PM,20.3,7.3,57,30.22,10.0,West,8.1,-,N/A,,Mostly Cloudy,270,2013-01-21 00:55:00
7:15 PM,20.3,6.3,55,30.22,10.0,West,9.2,-,N/A,,Mostly Cloudy,270,2013-01-21 01:15:00
7:35 PM,20.3,6.1,54,30.22,10.0,West,8.1,-,N/A,,Overcast,260,2013-01-21 01:35:00
7:55 PM,19.9,6.4,56,30.21,10.0,West,10.4,-,N/A,,Overcast,270,2013-01-21 01:55:00
8:15 PM,19.9,6.1,55,30.21,10.0,West,10.4,-,N/A,,Overcast,270,2013-01-21 02:15:00
8:35 PM,19.6,4.6,52,30.20,10.0,West,11.5,-,N/A,,Overcast,270,2013-01-21 02:35:00
8:55 PM,19.4,4.5,52,30.20,10.0,West,11.5,-,N/A,,Overcast,270,2013-01-21 02:55:00
9:15 PM,18.9,4.1,53,30.20,10.0,West,9.2,-,N/A,,Scattered Clouds,280,2013-01-21 03:15:00
9:35 PM,18.5,3.9,53,30.20,10.0,West,10.4,-,N/A,,Scattered Clouds,280,2013-01-21 03:35:00
9:55 PM,18.1,4.3,55,30.19,10.0,West,6.9,-,N/A,,Mostly Cloudy,270,2013-01-21 03:55:00
10:15 PM,18.1,4.5,55,30.19,10.0,West,9.2,-,N/A,,Overcast,270,2013-01-21 04:15:00
10:35 PM,18.1,4.6,56,30.19,10.0,West,9.2,-,N/A,,Overcast,270,2013-01-21 04:35:00
10:55 PM,18.0,4.6,56,30.18,10.0,West,10.4,-,N/A,,Overcast,270,2013-01-21 04:55:00
11:15 PM,18.1,4.3,55,30.18,10.0,West,9.2,-,N/A,,Overcast,280,2013-01-21 05:15:00
11:35 PM,18.0,4.6,56,30.17,10.0,West,9.2,-,N/A,,Overcast,280,2013-01-21 05:35:00
11:55 PM,17.6,4.3,56,30.16,10.0,West,10.4,-,N/A,,Mostly Cloudy,270,2013-01-21 05:55:00